Location: Campobasso
(41.5670°N, 14.6500°E)
Time: 11:40:10
(UTC+02:00)

ISS - Visible Passes

Search period start: 11 May 2021 00:00
Search period end: 21 May 2021 00:00
Orbit: 418 x 421 km, 51.6° (Epoch: 11 May)

Date Brightness Start Highest point End Pass type
(mag) Time Alt. Az. Time Alt. Az. Time Alt. Az.
11 May -0.8 02:04:21 16° N 02:04:21 16° N 02:06:29 10° NNE visible
11 May -0.8 03:39:43 10° NNW 03:42:01 17° N 03:44:19 10° NE visible
11 May -2.6 05:16:10 10° NW 05:19:27 48° NNE 05:22:43 10° ESE visible
12 May -0.5 01:18:16 14° NNE 01:18:16 14° NNE 01:19:05 10° NNE visible
12 May -0.6 02:52:15 10° NNW 02:54:21 15° N 02:56:27 10° NE visible
12 May -1.9 04:28:49 10° NW 04:31:55 33° NNE 04:35:01 10° E visible
13 May -0.6 02:05:02 11° NNW 02:06:40 15° N 02:08:40 10° NE visible
13 May -1.3 03:41:30 10° NW 03:44:21 25° NNE 03:47:12 10° ENE visible
14 May -0.6 01:18:38 15° NNW 01:18:58 15° N 01:21:02 10° NNE visible
14 May -1.0 02:54:10 10° NNW 02:56:44 20° NNE 02:59:18 10° ENE visible
14 May -3.6 04:30:35 10° NW 04:33:58 78° NE 04:37:20 10° ESE visible
14 May -2.6 21:14:28 10° S 21:17:12 23° SE 21:19:55 10° E visible
14 May -2.6 22:50:35 10° WSW 22:53:50 44° NNW 22:55:37 22° NNE visible
15 May -0.7 00:29:03 10° NW 00:31:17 16° N 00:33:32 10° NNE visible
15 May -0.7 02:06:47 10° NNW 02:09:05 17° N 02:11:23 10° NE visible
15 May -2.8 03:43:12 10° NW 03:46:30 48° NNE 03:49:46 10° ESE visible
15 May -3.5 22:03:01 10° WSW 22:06:21 71° NW 22:09:43 10° NE visible
15 May -0.9 23:41:07 10° WNW 23:43:37 19° NNW 23:46:08 10° NNE visible
16 May -0.6 01:19:18 10° NNW 01:21:24 15° N 01:23:30 10° NE visible
16 May -2.0 02:55:52 10° NW 02:58:58 33° NNE 03:02:05 10° E visible
16 May -3.2 04:32:40 10° WNW 04:35:48 35° SW 04:38:54 10° SSE visible
16 May -3.9 21:15:35 10° SW 21:18:55 69° SE 21:22:16 10° ENE visible
16 May -1.3 22:53:13 10° WNW 22:56:00 23° NNW 22:58:47 10° NE visible
17 May -0.5 00:31:42 10° NW 00:33:42 15° N 00:35:43 10° NE visible
17 May -1.4 02:08:33 10° NW 02:11:24 25° NNE 02:14:15 10° ENE visible
17 May -3.9 03:45:05 10° WNW 03:48:26 61° SW 03:51:45 10° SE visible
17 May -1.8 22:05:23 10° W 22:08:25 31° NNW 22:11:28 10° NE visible
17 May -0.6 23:43:57 10° NW 23:46:01 15° N 23:48:04 10° NNE visible
18 May -0.9 01:21:12 10° NW 01:22:56 18° N 01:22:56 18° N visible
18 May -2.5 21:17:38 10° WSW 21:20:52 44° NNW 21:24:07 10° NE visible
18 May -0.7 22:56:05 10° NW 22:58:19 16° N 23:00:34 10° NNE visible
19 May -0.9 00:33:49 10° NNW 00:36:07 17° N 00:36:32 17° NNE visible
19 May -0.9 22:08:10 10° WNW 22:10:39 19° NNW 22:13:09 10° NNE visible
19 May -0.7 23:46:20 10° NNW 23:48:26 15° N 23:50:21 11° NE visible
20 May -0.7 01:22:53 10° NW 01:23:17 12° NW 01:23:17 12° NW visible
20 May -1.2 21:20:15 10° WNW 21:23:01 23° NNW 21:25:48 10° NE visible
20 May -0.7 22:58:44 10° NW 23:00:43 15° N 23:02:44 10° NE visible
